SCP
0 0 0 0 0 0 0 0 0 0 0 0 0 0 0 0 0 0 0 0 0 0 0 0 0 0 0 0 0 0 0 0 0 0 0 0 0 0
0 0 0 0 0 0 0 0 0 0 0 0 0 0 0 0 0 0 0 0 0 0 0 0 0 0 0 0 0 0 0 0 0 0 0 0 0 0
0 0 0 0 0 0 0 0 0 0 0 0 0 0 0 0 0 0 0 0 0 0 0 0 0 0 0 0 0 0 0 0 0 0 0 0 0 0
0 0 0 0 0 0 0 0 0 0 0 0 0 0 0 0 0 0 0 0 0 0 0 0 0 0 0 -0 -0 0 0 0 0 0 0 0 0 0
0 0 0 0 0 0 0 0 0 0 0 0 0 0 0 0 0 0 0 0 0 0 0 0 0 0 0 0 -0 -0 -0 -0 -0 0 0 0 0 0
0 0 0 0 0 0 0 0 0 0 0 0 0 0 0 0 0 0 0 0 0 0 0 0 0 0 0 0 0 -0 0 0 0 -0 0 0 0 0
0 0 0 0 0 0 0 0 0 0 0 0 0 0 0 0 0 0 0 0 0 0 0 0 0 0 0 0 0 0 0 0 0 -0 0 0 0 0
0 0 0 0 0 0 0 0 0 0 0 0 0 0 0 0 0 0 0 0 0 0 0 0 0 0 0 0 0 0 0 0 -0 0 0 -0 0 0
0 0 0 0 0 0 0 0 0 0 0 0 0 0 0 0 0 0 0 0 0 0 0 0 0 0 0 0 0 0 -0 -0 -0 -0 -0 -0 -0 -0
0 0 0 0 0 0 0 0 0 0 0 0 0 0 0 -0 0 0 0 0 0 0 0 0 0 0 0 0 0 -0 -0 -0 -0 -0 -0 -0 -0 -0
0 0 0 0 0 0 0 0 0 0 0 0 0 0 0 0 0 0 0 0 0 0 0 0 0 0 0 0 0 0 -0 -0 -0 -0 -0 -0 0 0
0 0 0 0 0 0 0 0 0 0 0 0 0 0 0 0 0 0 0 0 0 0 0 0 0 0 0 0 0 0 0 -0 -0 -0 -0 -0 -0 -0
0 0 0 0 0 0 0 0 0 0 0 0 0 0 0 0 0 0 0 0 0 0 0 0 0 0 0 0 0 0 0 0 0 0 0 0 0 0
0 0 0 0 0 0 0 0 0 0 0 0 0 0 0 0 0 0 0 0 0 0 0 0 0 0 0 0 0 0 0 0 0 0 0 0 0 -0
0 0 0 0 0 0 0 0 0 0 0 0 0 0 0 0 0 0 0 0 0 0 0 0 0 -0 0 0 0 0 0 0 0 0 0 0 0 0
0 0 0 0 0 0 0 0 0 0 0 0 0 0 0 0 0 0 0 0 0 0 0 0 -0 -0 0 0 0 0 0 0 0 0 0 0 0 0
0 0 0 0 0 0 0 0 0 0 0 0 0 0 0 0 0 0 0 0 0 0 0 0 -0 -0 0 0 0 0 0 0 0 0 0 0 0 0
0 0 0 0 0 0 0 0 0 0 0 0 0 0 0 0 0 0 0 -0 0 0 0 0 -0 -0 -0 0 0 0 0 0 0 0 0 0 0 0
0 0 0 0 0 0 0 0 0 0 0 0 0 0 0 0 0 0 0 0 0 0 0 0 -0 0 0 0 0 0 0 0 0 0 0 0 0 0
0 0 0 0 0 0 0 0 0 0 0 0 0 0 0 0 0 0 0 0 0 0 0 0 -0 0 0 0 0 0 0 0 0 0 0 0 0 0
0 0 0 0 0 0 0 0 0 0 0 0 0 0 0 0 0 0 0 -0 0 -0 0 0 -0 -0 -0 0 0 0 0 0 0 0 0 0 0 0
0 0 0 0 0 0 0 0 0 0 0 0 0 0 0 0 0 0 0 0 -0 -0 -0 -0 -0 -0 0 -0 0 0 0 0 0 0 0 -0 0 0
0 0 0 0 0 0 0 0 0 0 0 0 0 0 0 0 0 0 0 0 0 -0 -0 -0 -0 0 -0 0 0 0 0 0 0 0 0 -0 -0 0
Wind_Speed_500mb
40 43 46 48 51 51 53 56 55 63 79 47 25 59 56 54 55 56 54 56 61 63 67 72 75 73 74 72 83 89 93 94 95 93 96 96 96 97
44 47 51 53 54 54 55 55 55 56 71 74 76 66 60 58 59 59 60 70 70 67 68 70 75 80 88 95 95 92 91 90 87 86 85 86 86 87
47 52 53 55 58 58 55 54 58 59 72 101 76 77 65 63 66 61 60 63 64 74 78 84 80 79 79 83 86 86 86 83 83 82 81 80 79 78
53 55 58 58 57 55 52 52 54 53 60 83 81 78 75 70 66 67 67 71 76 70 70 69 74 78 79 79 81 81 81 79 79 81 82 81 81 82
55 57 58 55 53 49 46 48 48 51 53 65 84 86 75 64 71 82 70 72 66 64 68 68 69 70 74 75 77 78 79 78 79 79 79 80 79 79
56 56 53 49 48 46 46 45 47 56 60 68 70 63 80 86 72 76 78 74 73 70 77 69 68 70 72 74 76 75 75 76 74 75 76 77 78 82
55 53 48 48 43 41 45 52 55 54 68 53 72 75 76 76 71 74 78 81 85 71 79 65 76 81 82 74 72 70 68 67 68 70 71 72 74 76
54 50 49 47 48 48 49 44 45 61 58 68 73 71 71 65 74 74 79 84 93 63 59 95 84 87 81 77 69 67 71 72 73 73 74 74 76 78
49 50 50 49 52 51 52 54 51 62 66 68 70 61 69 71 76 88 84 79 81 88 83 87 85 85 82 83 73 70 70 70 72 73 75 75 76 77
45 47 49 56 51 54 63 59 68 72 62 59 54 67 65 75 71 66 71 76 82 86 63 79 88 84 84 91 78 58 61 61 62 63 66 68 71 74
47 47 53 49 53 54 56 70 63 62 61 58 55 61 70 59 50 52 64 68 79 85 77 60 64 82 88 86 52 56 60 62 62 63 65 68 71 75
46 46 53 53 54 50 60 60 62 63 65 61 71 66 54 48 47 50 61 66 67 75 55 66 75 65 63 48 59 89 72 65 57 60 65 69 72 76
48 48 54 56 52 57 53 53 53 57 59 66 63 57 54 54 55 61 59 57 64 67 70 59 68 71 49 76 97 80 74 74 70 57 47 50 54 58
50 55 59 55 56 54 51 47 47 50 57 52 52 56 60 58 65 64 59 55 55 60 56 45 57 62 70 81 82 79 74 75 54 61 67 63 58 58
53 53 57 59 58 52 45 43 48 50 47 47 55 61 59 63 69 67 62 59 61 56 47 42 46 55 63 71 76 73 77 86 63 80 81 77 68 58
55 62 58 53 46 43 45 50 51 49 47 51 57 58 58 67 71 65 67 65 69 65 53 47 48 55 59 58 57 65 69 61 86 88 88 78 63 59
51 53 53 50 49 47 51 56 56 54 55 56 57 57 63 70 68 63 62 62 64 67 68 56 52 55 51 47 57 56 70 79 82 87 88 81 69 53
47 50 50 48 48 51 59 64 61 58 56 55 54 59 68 69 68 62 57 59 62 64 67 64 60 66 65 58 44 61 69 75 82 87 85 81 74 61
46 46 47 47 50 53 61 65 65 58 56 55 59 63 65 65 61 59 58 58 62 62 65 57 52 55 56 56 68 60 67 73 79 83 85 85 73 48
43 45 46 46 49 55 63 66 62 57 57 61 63 62 60 59 59 56 55 59 63 62 60 54 51 49 47 48 56 65 62 66 63 73 89 84 60 52
46 46 44 46 50 58 64 63 58 59 61 64 61 58 57 59 56 54 54 57 55 53 54 57 51 40 38 42 46 60 60 60 51 55 73 73 77 68
46 47 44 46 51 59 62 59 55 61 63 62 55 57 60 58 55 53 51 56 53 49 50 50 49 43 38 43 48 52 57 62 65 42 44 56 65 49
47 46 46 47 53 59 59 56 59 61 61 57 52 57 60 60 49 48 49 51 47 48 45 48 47 45 35 40 46 47 51 59 66 59 48 44 46 48
Wind_Direction_500mb
320 317 317 317 314 312 311 310 309 307 311 310 311 307 310 309 307 310 306 303 305 300 298 295 295 290 283 283 284 282 280 277 275 274 271 267 264 261
317 318 316 314 314 312 309 306 302 298 296 303 307 309 310 307 308 308 308 311 305 301 300 298 293 291 287 286 286 284 281 279 277 274 271 269 266 264
317 314 315 315 313 311 307 301 296 295 290 301 303 312 310 310 310 308 306 303 300 301 299 296 292 292 289 288 286 285 282 279 276 274 272 270 268 268
316 317 317 315 313 312 308 301 296 296 294 298 308 310 312 313 310 306 308 303 299 297 298 297 294 291 289 288 287 285 282 280 280 278 276 273 270 267
319 319 320 319 318 316 310 307 306 301 297 295 302 313 309 314 311 307 306 305 303 301 299 297 295 293 292 291 289 286 283 281 278 276 274 272 270 267
319 320 321 321 319 317 315 309 304 300 300 299 297 305 309 312 309 308 310 311 308 308 304 300 297 296 293 291 288 285 282 280 277 274 271 268 266 262
317 321 319 318 315 308 307 303 304 303 307 303 308 308 310 310 310 313 308 311 308 310 306 307 304 302 304 298 293 289 284 281 279 275 272 269 266 262
317 319 319 318 319 315 306 307 303 302 309 311 309 306 307 307 312 311 309 309 310 316 305 305 310 307 304 304 296 290 287 283 279 275 273 270 267 264
318 320 319 320 321 318 324 316 310 309 304 306 304 302 305 311 312 310 309 306 303 306 309 302 313 303 307 307 302 293 289 284 280 276 273 269 266 263
321 318 318 325 324 324 316 313 310 309 309 310 303 305 306 305 304 302 303 306 306 312 309 298 314 304 311 313 314 304 293 288 282 278 274 270 266 263
323 321 326 320 319 320 314 314 313 309 318 316 305 303 310 310 309 311 311 313 310 313 319 304 310 309 314 319 321 318 302 294 286 279 273 269 266 263
323 319 322 321 321 319 316 314 308 319 324 315 312 316 321 324 328 323 320 315 310 311 320 315 315 319 319 315 312 327 330 327 313 292 281 274 268 264
318 319 321 326 321 317 315 309 316 316 309 313 317 325 331 330 329 329 328 322 317 308 324 314 310 316 301 302 321 332 331 334 326 317 308 298 287 270
320 320 326 319 317 318 319 320 315 314 317 320 323 326 329 332 333 333 332 329 324 320 329 328 310 315 315 308 305 326 339 342 335 325 322 315 300 287
320 321 313 321 324 324 328 328 329 328 326 324 324 329 332 334 334 336 335 335 331 338 340 339 327 327 322 306 302 322 332 339 340 337 333 325 312 297
325 315 322 324 327 331 335 340 339 336 330 325 326 331 333 336 336 338 337 339 335 341 349 349 343 338 329 330 321 323 335 320 335 337 328 329 319 306
318 324 330 335 337 340 342 343 342 340 337 334 333 334 335 335 337 339 339 338 337 341 344 349 348 340 341 342 330 335 334 336 337 342 337 332 332 330
327 331 335 338 339 340 341 341 342 342 340 338 337 336 335 336 336 338 340 340 339 343 345 349 344 346 348 349 344 339 339 338 345 350 345 340 338 358
333 336 337 338 339 340 340 340 339 342 341 340 337 337 336 335 337 340 342 342 341 342 343 345 349 349 338 327 340 354 339 344 348 351 352 352 347 3
338 337 338 339 339 338 339 339 339 341 341 340 338 336 337 338 340 342 343 342 341 339 337 351 352 345 336 323 318 341 0 349 352 359 356 358 12 24
338 338 338 339 339 338 339 338 337 340 340 338 338 340 343 341 341 342 342 345 343 341 341 345 349 344 336 341 343 346 355 9 3 8 11 5 4 11
337 335 338 339 338 338 337 338 338 342 340 340 341 343 346 345 342 341 343 344 343 340 338 344 353 351 350 354 352 354 353 355 7 18 31 34 13 3
335 334 337 339 338 338 338 338 340 341 341 342 342 344 344 343 342 342 344 345 343 339 339 345 353 356 355 356 1 1 3 5 6 19 29 40 47 51
Wind_Speed_850mb
40 43 46 48 51 51 53 56 55 63 79 47 25 59 56 54 55 56 54 56 61 63 67 72 75 73 74 72 83 89 93 94 95 93 96 96 96 97
44 47 51 53 54 54 55 55 55 56 71 74 76 66 60 58 59 59 60 70 70 67 68 70 75 80 88 95 95 92 91 90 87 86 85 86 86 87
47 52 53 55 58 58 55 54 58 59 72 101 76 77 65 63 66 61 60 63 64 74 78 84 80 79 79 83 86 86 86 83 83 82 81 80 79 78
53 55 58 58 57 55 52 52 54 53 60 83 81 78 75 70 66 67 67 71 76 70 70 69 74 78 79 79 81 81 81 79 79 81 82 81 81 82
55 57 58 55 53 49 46 48 48 51 53 65 84 86 75 64 71 82 70 72 66 64 68 68 69 70 74 75 77 78 79 78 79 79 79 80 79 79
56 56 53 49 48 46 46 45 47 56 60 68 70 63 80 86 72 76 78 74 73 70 77 69 68 70 72 74 76 75 75 76 74 75 76 77 78 82
55 53 48 48 43 41 45 52 55 54 68 53 72 75 76 76 71 74 78 81 85 71 79 65 76 81 82 74 72 70 68 67 68 70 71 72 74 76
54 50 49 47 48 48 49 44 45 61 58 68 73 71 71 65 74 74 79 84 93 63 59 95 84 87 81 77 69 67 71 72 73 73 74 74 76 78
49 50 50 49 52 51 52 54 51 62 66 68 70 61 69 71 76 88 84 79 81 88 83 87 85 85 82 83 73 70 70 70 72 73 75 75 76 77
45 47 49 56 51 54 63 59 68 72 62 59 54 67 65 75 71 66 71 76 82 86 63 79 88 84 84 91 78 58 61 61 62 63 66 68 71 74
47 47 53 49 53 54 56 70 63 62 61 58 55 61 70 59 50 52 64 68 79 85 77 60 64 82 88 86 52 56 60 62 62 63 65 68 71 75
46 46 53 53 54 50 60 60 62 63 65 61 71 66 54 48 47 50 61 66 67 75 55 66 75 65 63 48 59 89 72 65 57 60 65 69 72 76
48 48 54 56 52 57 53 53 53 57 59 66 63 57 54 54 55 61 59 57 64 67 70 59 68 71 49 76 97 80 74 74 70 57 47 50 54 58
50 55 59 55 56 54 51 47 47 50 57 52 52 56 60 58 65 64 59 55 55 60 56 45 57 62 70 81 82 79 74 75 54 61 67 63 58 58
53 53 57 59 58 52 45 43 48 50 47 47 55 61 59 63 69 67 62 59 61 56 47 42 46 55 63 71 76 73 77 86 63 80 81 77 68 58
55 62 58 53 46 43 45 50 51 49 47 51 57 58 58 67 71 65 67 65 69 65 53 47 48 55 59 58 57 65 69 61 86 88 88 78 63 59
51 53 53 50 49 47 51 56 56 54 55 56 57 57 63 70 68 63 62 62 64 67 68 56 52 55 51 47 57 56 70 79 82 87 88 81 69 53
47 50 50 48 48 51 59 64 61 58 56 55 54 59 68 69 68 62 57 59 62 64 67 64 60 66 65 58 44 61 69 75 82 87 85 81 74 61
46 46 47 47 50 53 61 65 65 58 56 55 59 63 65 65 61 59 58 58 62 62 65 57 52 55 56 56 68 60 67 73 79 83 85 85 73 48
43 45 46 46 49 55 63 66 62 57 57 61 63 62 60 59 59 56 55 59 63 62 60 54 51 49 47 48 56 65 62 66 63 73 89 84 60 52
46 46 44 46 50 58 64 63 58 59 61 64 61 58 57 59 56 54 54 57 55 53 54 57 51 40 38 42 46 60 60 60 51 55 73 73 77 68
46 47 44 46 51 59 62 59 55 61 63 62 55 57 60 58 55 53 51 56 53 49 50 50 49 43 38 43 48 52 57 62 65 42 44 56 65 49
47 46 46 47 53 59 59 56 59 61 61 57 52 57 60 60 49 48 49 51 47 48 45 48 47 45 35 40 46 47 51 59 66 59 48 44 46 48
Wind_Direction_850mb
320 317 317 317 314 312 311 310 309 307 311 310 311 307 310 309 307 310 306 303 305 300 298 295 295 290 283 283 284 282 280 277 275 274 271 267 264 261
317 318 316 314 314 312 309 306 302 298 296 303 307 309 310 307 308 308 308 311 305 301 300 298 293 291 287 286 286 284 281 279 277 274 271 269 266 264
317 314 315 315 313 311 307 301 296 295 290 301 303 312 310 310 310 308 306 303 300 301 299 296 292 292 289 288 286 285 282 279 276 274 272 270 268 268
316 317 317 315 313 312 308 301 296 296 294 298 308 310 312 313 310 306 308 303 299 297 298 297 294 291 289 288 287 285 282 280 280 278 276 273 270 267
319 319 320 319 318 316 310 307 306 301 297 295 302 313 309 314 311 307 306 305 303 301 299 297 295 293 292 291 289 286 283 281 278 276 274 272 270 267
319 320 321 321 319 317 315 309 304 300 300 299 297 305 309 312 309 308 310 311 308 308 304 300 297 296 293 291 288 285 282 280 277 274 271 268 266 262
317 321 319 318 315 308 307 303 304 303 307 303 308 308 310 310 310 313 308 311 308 310 306 307 304 302 304 298 293 289 284 281 279 275 272 269 266 262
317 319 319 318 319 315 306 307 303 302 309 311 309 306 307 307 312 311 309 309 310 316 305 305 310 307 304 304 296 290 287 283 279 275 273 270 267 264
318 320 319 320 321 318 324 316 310 309 304 306 304 302 305 311 312 310 309 306 303 306 309 302 313 303 307 307 302 293 289 284 280 276 273 269 266 263
321 318 318 325 324 324 316 313 310 309 309 310 303 305 306 305 304 302 303 306 306 312 309 298 314 304 311 313 314 304 293 288 282 278 274 270 266 263
323 321 326 320 319 320 314 314 313 309 318 316 305 303 310 310 309 311 311 313 310 313 319 304 310 309 314 319 321 318 302 294 286 279 273 269 266 263
323 319 322 321 321 319 316 314 308 319 324 315 312 316 321 324 328 323 320 315 310 311 320 315 315 319 319 315 312 327 330 327 313 292 281 274 268 264
318 319 321 326 321 317 315 309 316 316 309 313 317 325 331 330 329 329 328 322 317 308 324 314 310 316 301 302 321 332 331 334 326 317 308 298 287 270
320 320 326 319 317 318 319 320 315 314 317 320 323 326 329 332 333 333 332 329 324 320 329 328 310 315 315 308 305 326 339 342 335 325 322 315 300 287
320 321 313 321 324 324 328 328 329 328 326 324 324 329 332 334 334 336 335 335 331 338 340 339 327 327 322 306 302 322 332 339 340 337 333 325 312 297
325 315 322 324 327 331 335 340 339 336 330 325 326 331 333 336 336 338 337 339 335 341 349 349 343 338 329 330 321 323 335 320 335 337 328 329 319 306
318 324 330 335 337 340 342 343 342 340 337 334 333 334 335 335 337 339 339 338 337 341 344 349 348 340 341 342 330 335 334 336 337 342 337 332 332 330
327 331 335 338 339 340 341 341 342 342 340 338 337 336 335 336 336 338 340 340 339 343 345 349 344 346 348 349 344 339 339 338 345 350 345 340 338 358
333 336 337 338 339 340 340 340 339 342 341 340 337 337 336 335 337 340 342 342 341 342 343 345 349 349 338 327 340 354 339 344 348 351 352 352 347 3
338 337 338 339 339 338 339 339 339 341 341 340 338 336 337 338 340 342 343 342 341 339 337 351 352 345 336 323 318 341 0 349 352 359 356 358 12 24
338 338 338 339 339 338 339 338 337 340 340 338 338 340 343 341 341 342 342 345 343 341 341 345 349 344 336 341 343 346 355 9 3 8 11 5 4 11
337 335 338 339 338 338 337 338 338 342 340 340 341 343 346 345 342 341 343 344 343 340 338 344 353 351 350 354 352 354 353 355 7 18 31 34 13 3
335 334 337 339 338 338 338 338 340 341 341 342 342 344 344 343 342 342 344 345 343 339 339 345 353 356 355 356 1 1 3 5 6 19 29 40 47 51